| time (UTC) | temp C | wind direction | speed KPH | gust KPH | rain 1hr cm | rain 24hr cm | rain mn cm | humidity % | barometer mb |
| 20260508143023 | 11 | 217 | 1.6 | 3.2 | 0.00 | 0.00 | 0.00 | 64 | 1016.7 |
| 20260508141519 | 10 | 193 | 1.6 | 3.2 | 0.00 | 0.00 | 0.00 | 64 | 1016.8 |
| 20260508140015 | 10 | 232 | 1.6 | 1.6 | 0.00 | 0.00 | 0.00 | 63 | 1016.9 |
| 20260508134510 | 10 | 111 | 0.0 | 3.2 | 0.00 | 0.00 | 0.00 | 67 | 1016.8 |
| 20260508133012 | 8 | 92 | 3.2 | 6.4 | 0.00 | 0.00 | 0.00 | 70 | 1016.7 |
| 20260508131519 | 7 | 97 | 0.0 | 0.0 | 0.00 | 0.00 | 0.00 | 72 | 1016.8 |
| 20260508130024 | 6 | 102 | 0.0 | 0.0 | 0.00 | 0.00 | 0.00 | 73 | 1016.6 |
| 20260508124511 | 6 | 92 | 0.0 | 0.0 | 0.00 | 0.00 | 0.00 | 74 | 1016.6 |
| 20260508123012 | 6 | 101 | 0.0 | 0.0 | 0.00 | 0.00 | 0.00 | 75 | 1016.5 |
| 20260508121526 | 7 | 169 | 0.0 | 3.2 | 0.00 | 0.00 | 0.00 | 69 | 1016.4 |
| 20260508120022 | 7 | 103 | 3.2 | 4.8 | 0.00 | 0.00 | 0.00 | 69 | 1016.2 |
| 20260508114524 | 7 | 79 | 1.6 | 4.8 | 0.00 | 0.00 | 0.00 | 69 | 1016.2 |
| 20260508113014 | 7 | 83 | 1.6 | 3.2 | 0.00 | 0.00 | 0.00 | 69 | 1016.3 |
| 20260508111512 | 7 | 103 | 0.0 | 3.2 | 0.00 | 0.00 | 0.00 | 71 | 1016.2 |
| 20260508110018 | 7 | 115 | 4.8 | 4.8 | 0.00 | 0.10 | 0.00 | 72 | 1016.1 |
| 20260508104522 | 6 | 111 | 4.8 | 6.4 | 0.00 | 0.10 | 0.00 | 77 | 1016.1 |
| 20260508103033 | 6 | 140 | 0.0 | 3.2 | 0.00 | 0.10 | 0.00 | 76 | 1016.1 |
| 20260508101512 | 7 | 138 | 1.6 | 3.2 | 0.00 | 0.10 | 0.00 | 69 | 1016.0 |
| 20260508100023 | 7 | 88 | 3.2 | 4.8 | 0.00 | 0.10 | 0.00 | 71 | 1015.9 |
| 20260508094522 | 7 | 78 | 1.6 | 3.2 | 0.00 | 0.10 | 0.00 | 73 | 1016.1 |
| 20260508093024 | 7 | 360 | 1.6 | 3.2 | 0.00 | 0.10 | 0.00 | 72 | 1016.1 |
| 20260508091511 | 7 | 49 | 0.0 | 3.2 | 0.00 | 0.10 | 0.00 | 69 | 1016.0 |
| 20260508090013 | 8 | 63 | 0.0 | 0.0 | 0.00 | 0.10 | 0.00 | 66 | 1015.9 |
| 20260508084518 | 8 | 112 | 1.6 | 6.4 | 0.00 | 0.10 | 0.00 | 66 | 1015.9 |
| 20260508083024 | 8 | 66 | 1.6 | 3.2 | 0.00 | 0.10 | 0.00 | 66 | 1016.0 |
| 20260508081524 | 8 | 85 | 0.0 | 3.2 | 0.00 | 0.10 | 0.00 | 64 | 1016.0 |
| 20260508080013 | 8 | 127 | 0.0 | 1.6 | 0.00 | 0.10 | 0.00 | 68 | 1016.1 |
| 20260508074516 | 7 | 137 | 1.6 | 4.8 | 0.00 | 0.15 | 0.00 | 71 | 1016.0 |
| 20260508073019 | 7 | 132 | 0.0 | 3.2 | 0.00 | 0.20 | 0.00 | 71 | 1016.0 |
| 20260508071538 | 8 | 110 | 4.8 | 9.7 | 0.00 | 0.23 | 0.00 | 66 | 1015.9 |
| 20260508070008 | 8 | 17 | 0.0 | 4.8 | 0.00 | 0.23 | 0.00 | 65 | 1015.9 |
| 20260508064512 | 9 | 128 | 1.6 | 3.2 | 0.00 | 0.23 | 0.00 | 62 | 1016.0 |
| 20260508063029 | 10 | 108 | 1.6 | 4.8 | 0.00 | 0.23 | 0.00 | 61 | 1015.9 |
| 20260508061523 | 10 | 92 | 4.8 | 11.3 | 0.00 | 0.23 | 0.00 | 62 | 1015.9 |
| 20260508060033 | 9 | 84 | 1.6 | 3.2 | 0.00 | 0.23 | 0.00 | 67 | 1015.9 |
| 20260508054512 | 9 | 230 | 0.0 | 3.2 | 0.00 | 0.23 | 0.23 | 67 | 1015.9 |
| 20260508053018 | 10 | 241 | 1.6 | 9.7 | 0.00 | 0.23 | 0.23 | 62 | 1015.9 |
| 20260508051519 | 11 | 103 | 6.4 | 9.7 | 0.00 | 0.23 | 0.23 | 59 | 1015.8 |
| 20260508050025 | 11 | 94 | 6.4 | 9.7 | 0.00 | 0.23 | 0.23 | 59 | 1015.8 |
| 20260508044528 | 10 | 118 | 6.4 | 9.7 | 0.00 | 0.23 | 0.23 | 60 | 1015.9 |
| 20260508043014 | 11 | 112 | 4.8 | 9.7 | 0.00 | 0.23 | 0.23 | 59 | 1015.8 |
| 20260508041520 | 11 | 109 | 4.8 | 6.4 | 0.00 | 0.23 | 0.23 | 59 | 1015.8 |
| 20260508040023 | 11 | 114 | 4.8 | 6.4 | 0.00 | 0.23 | 0.23 | 60 | 1015.7 |
| 20260508034527 | 11 | 112 | 4.8 | 4.8 | 0.00 | 0.23 | 0.23 | 62 | 1015.6 |
| 20260508033028 | 11 | 111 | 4.8 | 6.4 | 0.00 | 0.23 | 0.23 | 61 | 1015.6 |
| 20260508031518 | 11 | 107 | 4.8 | 8.0 | 0.00 | 0.23 | 0.23 | 62 | 1015.4 |
| 20260508030006 | 11 | 137 | 8.0 | 14.5 | 0.00 | 0.23 | 0.23 | 61 | 1015.2 |
| 20260508024505 | 12 | 163 | 4.8 | 6.4 | 0.00 | 0.23 | 0.23 | 60 | 1014.9 |
| 20260508023009 | 13 | 280 | 3.2 | 6.4 | 0.00 | 0.23 | 0.23 | 49 | 1014.7 |
| 20260508021515 | 14 | 322 | 3.2 | 11.3 | 0.00 | 0.23 | 0.23 | 51 | 1014.6 |
| 20260508020020 | 13 | 9 | 3.2 | 6.4 | 0.00 | 0.23 | 0.23 | 51 | 1014.4 |
| 20260508014508 | 14 | 10 | 3.2 | 4.8 | 0.00 | 0.23 | 0.23 | 50 | 1014.3 |
| 20260508013009 | 15 | 352 | 4.8 | 12.9 | 0.00 | 0.23 | 0.23 | 50 | 1014.1 |
| 20260508011514 | 15 | 9 | 6.4 | 17.7 | 0.00 | 0.23 | 0.23 | 52 | 1014.1 |
| 20260508010030 | 14 | 340 | 4.8 | 16.1 | 0.00 | 0.23 | 0.23 | 54 | 1014.0 |
| 20260508004522 | 14 | 22 | 3.2 | 22.5 | 0.00 | 0.23 | 0.23 | 53 | 1014.1 |
| 20260508003009 | 14 | 315 | 9.7 | 19.3 | 0.00 | 0.23 | 0.23 | 51 | 1014.1 |
| 20260508000014 | 17 | 310 | 1.6 | 11.3 | 0.00 | 0.23 | 0.23 | 43 | 1013.3 |
| 20260507234520 | 18 | 19 | 4.8 | 12.9 | 0.00 | 0.23 | 0.23 | 44 | 1013.2 |
| 20260507233037 | 17 | 326 | 1.6 | 14.5 | 0.00 | 0.23 | 0.23 | 46 | 1013.2 |
| 20260507231510 | 18 | 336 | 4.8 | 12.9 | 0.00 | 0.23 | 0.23 | 41 | 1013.0 |
| 20260507230014 | 17 | 315 | 6.4 | 12.9 | 0.00 | 0.23 | 0.23 | 41 | 1013.0 |
| 20260507224519 | 17 | 34 | 4.8 | 14.5 | 0.00 | 0.23 | 0.23 | 41 | 1013.0 |
| 20260507223030 | 18 | 30 | 4.8 | 14.5 | 0.00 | 0.23 | 0.23 | 41 | 1013.2 |
| 20260507221533 | 17 | 315 | 4.8 | 12.9 | 0.00 | 0.23 | 0.23 | 45 | 1013.1 |
| 20260507220025 | 17 | 352 | 8.0 | 24.1 | 0.00 | 0.23 | 0.23 | 40 | 1013.3 |
| 20260507214519 | 17 | 239 | 3.2 | 17.7 | 0.00 | 0.23 | 0.23 | 41 | 1013.3 |
| 20260507213019 | 18 | 26 | 3.2 | 14.5 | 0.00 | 0.23 | 0.23 | 42 | 1013.5 |
| 20260507211525 | 18 | 360 | 3.2 | 16.1 | 0.00 | 0.23 | 0.23 | 40 | 1013.5 |
| 20260507210029 | 17 | 328 | 9.7 | 17.7 | 0.00 | 0.23 | 0.23 | 43 | 1013.6 |
| 20260507204514 | 18 | 17 | 8.0 | 14.5 | 0.00 | 0.23 | 0.23 | 43 | 1013.6 |
| 20260507203020 | 18 | 29 | 6.4 | 12.9 | 0.00 | 0.23 | 0.23 | 44 | 1013.5 |
| 20260507201522 | 17 | 37 | 4.8 | 16.1 | 0.00 | 0.23 | 0.23 | 47 | 1013.6 |
| 20260507200027 | 17 | 296 | 3.2 | 16.1 | 0.00 | 0.23 | 0.23 | 45 | 1013.6 |
| 20260507194509 | 17 | 329 | 8.0 | 14.5 | 0.00 | 0.23 | 0.23 | 43 | 1013.7 |
| 20260507193018 | 17 | 24 | 3.2 | 12.9 | 0.00 | 0.23 | 0.23 | 42 | 1013.7 |
| 20260507191522 | 17 | 13 | 4.8 | 9.7 | 0.00 | 0.23 | 0.23 | 46 | 1013.7 |
| 20260507190028 | 17 | 333 | 3.2 | 17.7 | 0.00 | 0.23 | 0.23 | 48 | 1014.0 |
| 20260507184526 | 16 | 329 | 9.7 | 22.5 | 0.00 | 0.23 | 0.23 | 44 | 1014.2 |
| 20260507183026 | 16 | 23 | 6.4 | 12.9 | 0.00 | 0.23 | 0.23 | 48 | 1014.4 |
| 20260507181505 | 16 | 333 | 8.0 | 17.7 | 0.00 | 0.23 | 0.23 | 52 | 1014.4 |
| 20260507180005 | 15 | 36 | 9.7 | 16.1 | 0.00 | 0.23 | 0.23 | 50 | 1014.3 |
| 20260507174514 | 15 | 341 | 3.2 | 9.7 | 0.00 | 0.23 | 0.23 | 50 | 1014.4 |
| 20260507173022 | 16 | 44 | 6.4 | 12.9 | 0.00 | 0.23 | 0.23 | 50 | 1014.4 |
| 20260507171512 | 16 | 70 | 3.2 | 8.0 | 0.00 | 0.23 | 0.23 | 55 | 1014.2 |
| 20260507170007 | 15 | 49 | 1.6 | 4.8 | 0.00 | 0.23 | 0.23 | 55 | 1014.2 |
| 20260507164512 | 14 | 11 | 1.6 | 6.4 | 0.00 | 0.23 | 0.23 | 55 | 1014.4 |
| 20260507163012 | 15 | 340 | 3.2 | 14.5 | 0.00 | 0.23 | 0.23 | 53 | 1014.4 |
| 20260507161519 | 14 | 327 | 3.2 | 9.7 | 0.00 | 0.23 | 0.23 | 55 | 1014.5 |
| 20260507160017 | 14 | 332 | 4.8 | 8.0 | 0.00 | 0.23 | 0.23 | 58 | 1014.4 |
| 20260507154514 | 13 | 323 | 3.2 | 6.4 | 0.00 | 0.23 | 0.23 | 58 | 1014.6 |
| 20260507153017 | 13 | 36 | 0.0 | 4.8 | 0.00 | 0.23 | 0.23 | 62 | 1014.7 |
| 20260507151516 | 12 | 25 | 0.0 | 4.8 | 0.00 | 0.23 | 0.23 | 65 | 1014.7 |
| 20260507150023 | 11 | 250 | 3.2 | 6.4 | 0.00 | 0.23 | 0.23 | 65 | 1014.7 |
| 20260507144523 | 11 | 187 | 1.6 | 6.4 | 0.00 | 0.23 | 0.23 | 66 | 1014.7 |